Location: Newark
(49.3000°N, 9.4667°E)
Time: 18:35:37
(UTC+00:00)

A-11 Canister half - Visible Passes

Search period start: 21 May 2019 00:00
Search period end: 31 May 2019 00:00
Orbit: 1525 x 1684 km, 47.3° (Epoch: 20 May)

Date Brightness Start Highest point End Pass type
(mag) Time Alt. Az. Time Alt. Az. Time Alt. Az.
21 May 10.9 20:36:16 10° W 20:41:08 15° SW 20:46:04 10° SSW visible
22 May 10.9 20:14:20 10° W 20:19:36 16° SW 20:24:56 10° SSW visible
23 May 10.9 19:52:27 10° W 19:58:04 17° SW 20:03:45 10° SSW visible
